This demonstration page uses our WeatherBlox Daily Observations layout. Learn more.

Left ArrowRight Arrow

Hourly Observations for November 20, 2019

Temp ( °F °C ) Dew Point ( °F °C ) Humidity (%) Winds ( mph kmh ) Pressure ( in mb ) Visibility ( mi km ) Precip ( " mm )
12:53 am 00:53 Clear 45 7.2 32 0 61 61 SE 12 19 29.78 1009 10 16 0.00 0.00
1:53 am 01:53 Clear 44 6.7 32 0 63 63 SSE 10 17 29.76 1008 10 16 0.00 0.00
2:53 am 02:53 Clear 43 6.1 32 0 65 65 SSE 10 17 29.75 1007 10 16 0.00 0.00
3:53 am 03:53 Clear 43 6.1 32 0 65 65 SSE 10 17 29.73 1007 10 16 0.00 0.00
4:53 am 04:53 Clear 41 5 32 0 70 70 SE 7 11 29.72 1007 10 16 0.00 0.00
5:53 am 05:53 Clear 43 6.1 33 0.6 68 68 SE 9 15 29.72 1006 10 16 0.00 0.00
6:53 am 06:53 Clear 43 6.1 34 1.1 71 71 SE 12 19 29.71 1006 10 16 0.00 0.00
7:53 am 07:53 Sunny 43 6.1 34 1.1 71 71 SE 13 20 29.71 1006 9 14 0.00 0.00
8:53 am 08:53 Sunny 45 7.2 35 1.7 68 68 SSE 8 13 29.72 1006 10 16 0.00 0.00
9:53 am 09:53 Sunny 48 8.9 38 3.3 68 68 SE 9 15 29.70 1006 10 16 0.00 0.00
10:53 am 10:53 Sunny 52 11.1 41 5 66 66 SSE 9 15 29.70 1006 10 16 0.00 0.00
11:53 am 11:53 Sunny 57 13.9 45 7.2 64 64 SSE 17 28 29.65 1004 10 16 0.00 0.00
12:53 pm 12:53 Sunny 59 15 46 7.8 62 62 SSE 16 26 29.62 1003 10 16 0.00 0.00
1:53 pm 13:53 Partly Cloudy 62 16.7 48 8.9 60 60 S 9 15 29.62 1003 10 16 0.00 0.00
2:53 pm 14:53 Cloudy 61 16.1 48 8.9 63 63 S 7 11 29.62 1003 10 16 0.00 0.00
3:53 pm 15:53 Cloudy 61 16.1 49 9.4 65 65 S 7 11 29.64 1004 10 16 0.00 0.00
4:53 pm 16:53 Mostly Sunny 60 15.6 50 10 70 70 SSE 7 11 29.64 1004 10 16 0.00 0.00
5:53 pm 17:53 Cloudy 58 14.4 51 10.6 78 78 ESE 5 7 29.65 1004 10 16 0.00 0.00
6:29 pm 18:29 Cloudy 57 14 52 11 82 82 ESE 3 6 29.63 1003 10 16 0.00 0.00
6:49 pm 18:49 Cloudy with Light Rain 57 14 52 11 82 82 ENE 3 6 29.63 1003 6 10 0.00 0.00
6:53 pm 18:53 Cloudy with Light Rain 57 13.9 52 11.1 83 83 NE 3 6 29.65 1004 5 8 0.01 0.25
7:02 pm 19:02 Cloudy with Rain 55 12.8 52 11.1 90 90 NNE 5 7 29.64 1004 3 4 0.03 0.76
7:28 pm 19:28 Cloudy with Heavy Rain 48 9 43 6 82 82 NNW 22 35 29.69 1005 3 4 0.00 0.00
7:38 pm 19:38 Cloudy with Heavy Rain 45 7.2 41 5 86 86 N 24 39 29.70 1006 3 4 0.23 5.84
7:53 pm 19:53 Cloudy with Heavy Rain 45 7.2 41 5 86 86 N 20 31 29.70 1006 3 4 0.29 7.37
8:10 pm 20:10 Cloudy with Rain 44 6.7 40 4.4 85 85 N 21 33 29.71 1006 3 5 0.06 1.52
8:53 pm 20:53 Cloudy with Light Rain 41 5 38 3.3 89 89 N 21 33 29.73 1007 6 10 0.10 2.54
9:15 pm 21:15 Cloudy with Light Rain 40 4.4 38 3.3 93 93 N 20 31 29.77 1008 5 8 0.05 1.27
9:53 pm 21:53 Cloudy with Rain 40 4.4 37 2.8 89 89 NW 15 24 29.79 1009 4 6 0.10 2.54
10:53 pm 22:53 Cloudy with Light Rain 39 3.9 37 2.8 93 93 NNW 16 26 29.81 1010 8 13 0.08 2.03
11:03 pm 23:03 Cloudy with Light Rain 39 3.9 36 2.2 89 89 NW 17 28 29.86 1011 9 14 0.00 0.00
11:12 pm 23:12 Cloudy 39 4 36 2 87 87 NNW 20 31 29.85 1011 10 16 0.00 0.00
11:53 pm 23:53 Cloudy with Light Rain 38 3.3 36 2.2 93 93 NW 18 30 29.84 1011 3 5 0.00 0.00

Powered by AerisWeather